Weather History for KMGJ - June, 2013

Change the Weather History Date:

Friday, June 14, 2013

  Actual Average (KPOU) Record (KPOU)
Temperature  
Mean Temperature 62 °F 67 °F  
Max Temperature 75 °F 79 °F 95 °F (1956)
Min Temperature 52 °F 56 °F 43 °F (1978)
Degree Days  
Heating Degree Days 2 2  
Month to date heating degree days 36  
Since 1 June heating degree days 36  
Since 1 July heating degree days 6198  
Cooling Degree Days 0 0  
Month to date cooling degree days 42  
Year to date cooling degree days 78  
Since 1 June cooling degree days 42  
Growing Degree Days 12 (Base 50)    
Moisture  
Dew Point 56 °F    
Average Humidity 76    
Maximum Humidity 96    
Minimum Humidity 55    
Precipitation  
Precipitation 0.40 in 0.15 in 0.86 in (2008)
Month to date precipitation 2.24  
Year to date precipitation 19.74  
Sea Level Pressure  
Sea Level Pressure 29.75 in    
Wind  
Wind Speed 10 mph (North)    
Max Wind Speed 17 mph    
Max Gust Speed 25 mph    
Visibility 9 miles    
Events Rain    
T = Trace of Precipitation, MM = Missing Value Source: NWS Daily Summary

Daily Weather History Graph

Daily Weather History Graph

Search for Another Location

Airport or City:

Trip Planner

Search our weather history database for the weather conditions in past years. The results will help you decide how hot, cold, wet, or windy it might be!

Date:

Astronomy

Jun. 14, 2013 Rise Set
Actual Time 5:22 AM EDT 8:32 PM EDT
Civil Twilight 4:48 AM EDT 9:06 PM EDT
Nautical Twilight 4:05 AM EDT 9:49 PM EDT
Astronomical Twilight 3:13 AM EDT 10:42 PM EDT
Moon 10:58 AM EDT (6/14) No Moon Set
Length of Visible Light 16h 17m
Length of Day
15h 09m
Waxing Crescent, 30% of the Moon is Illuminated
Jun 14
Waxing Crescent
Jun 16
First Quarter
Jun 23
Full
Jun 30
Last Quarter
Jul 8
New

Hourly Weather History & Observations

Time (EDT) Temp. Dew Point Humidity Pressure Visibility Wind Dir Wind Speed Gust Speed Precip Events Conditions
12:15 AM 53.6 °F - N/A% 29.61 in 6.0 mi NNE 12.7 mph - 0.03 in Rain Rain
12:31 AM 53.6 °F - N/A% 29.61 in 6.0 mi NNE 13.8 mph - 0.06 in Rain Rain
12:54 AM 54.0 °F - N/A% 29.62 in 9.0 mi NNE 11.5 mph 21.9 mph 0.08 in Rain Light Rain
1:54 AM 54.0 °F - N/A% 29.64 in 8.0 mi NNE 15.0 mph 25.3 mph 0.09 in Rain Rain
2:09 AM 53.6 °F - N/A% 29.65 in 10.0 mi NNE 16.1 mph 21.9 mph 0.02 in Rain Light Rain
2:16 AM 53.6 °F - N/A% 29.65 in 10.0 mi NNE 17.3 mph 23.0 mph 0.02 in Rain Light Rain
2:26 AM 53.6 °F - N/A% 29.65 in 10.0 mi NNE 16.1 mph - 0.04 in Rain Light Rain
3:54 AM 52.0 °F - N/A% 29.68 in 8.0 mi North 10.4 mph - 0.08 in Rain Rain
4:54 AM 53.1 °F - N/A% 29.70 in 10.0 mi NNE 8.1 mph - 0.03 in Rain Light Rain
5:54 AM 53.1 °F - N/A% 29.71 in 10.0 mi NNE 8.1 mph - 0.00 in   Overcast
6:54 AM 54.0 °F - N/A% 29.73 in 10.0 mi North 6.9 mph - N/A   Overcast
7:54 AM 55.0 °F - N/A% 29.73 in 10.0 mi North 4.6 mph - N/A   Overcast
8:54 AM 57.0 °F 55.9 °F 96% 29.75 in 10.0 mi North - - N/A   Overcast
10:54 AM 63.0 °F 53.1 °F 70% 29.77 in 10.0 mi South 4.6 mph - N/A   Mostly Cloudy
11:54 AM 66.0 °F 55.0 °F 68% 29.77 in 10.0 mi South 8.1 mph - N/A   Partly Cloudy
12:54 PM 70.0 °F 57.9 °F 65% 29.77 in 10.0 mi Variable 3.5 mph - N/A   Clear
1:54 PM 72.0 °F 57.0 °F 59% 29.76 in 10.0 mi Calm Calm - N/A   Partly Cloudy
2:54 PM 73.0 °F 55.9 °F 55% 29.76 in 10.0 mi ENE 4.6 mph - N/A   Partly Cloudy
3:54 PM 66.0 °F 57.0 °F 73% 29.79 in 3.0 mi North 9.2 mph - 0.04 in Rain Light Rain
3:57 PM 64.4 °F 57.2 °F 77% 29.79 in 1.8 mi NNE 11.5 mph 19.6 mph 0.05 in Rain Heavy Rain
4:05 PM 64.4 °F 59.0 °F 83% 29.80 in 3.0 mi North 12.7 mph 19.6 mph 0.05 in Rain Light Rain
4:54 PM 62.1 °F 55.0 °F 78% 29.81 in 10.0 mi NNW 8.1 mph - 0.07 in Rain Light Rain
5:54 PM 62.1 °F 55.9 °F 80% 29.81 in 10.0 mi NNW 6.9 mph - 0.01 in   Overcast
6:54 PM 64.0 °F 57.0 °F 78% 29.82 in 10.0 mi Variable 3.5 mph - N/A   Scattered Clouds
7:54 PM 64.0 °F 55.9 °F 75% 29.83 in 10.0 mi NW 9.2 mph - N/A   Scattered Clouds
8:54 PM 64.0 °F 55.0 °F 73% 29.84 in 10.0 mi Variable 6.9 mph - N/A   Overcast
9:54 PM 57.9 °F 55.0 °F 90% 29.87 in 10.0 mi South 3.5 mph - N/A   Clear
10:54 PM 55.0 °F 54.0 °F 96% 29.88 in 10.0 mi Calm Calm - N/A   Clear
11:54 PM 61.0 °F 55.0 °F 81% 29.88 in 10.0 mi NW 4.6 mph - N/A   Clear